Regional Weather Roundup
Issued by NWS Newport/Morehead, NC

Home | Current Version | Previous Version | Text Only | Print | Product List | Glossary On
Versions: 1 2 3 4 5 6 7 8 9 10 11 12 13 14 15 16 17 18 19 20 21 22 23 24 25 26 27 28 29 30 31 32 33 34 35 36 37 38 39 40 41 42 43 44 45 46 47 48 49 50
000
ASUS42 KMHX 250910
RWRMHX
WEATHER ROUNDUP FOR EASTERN NORTH CAROLINA
NATIONAL WEATHER SERVICE NEWPORT/MOREHEAD CITY NC
500 AM EDT SAT OCT 25 2014

NOTE: "FAIR" INDICATES FEW OR NO CLOUDS BELOW 12,000 FEET
WITH NO SIGNIFICANT WEATHER AND/OR OBSTRUCTIONS TO VISIBILITY

NCZ015>017-031-032-045>047-102-103-251000-
NORTH COAST

CITY           SKY/WX    TMP DP  RH WIND       PRES   REMARKS
EDENTON        CLEAR     45  44  95 CALM      29.96R
ELIZABETH CITY CLEAR     50  44  80 NW7       29.95S
KITTY HAWK     SUNNY     55  48  80 NW3       29.93S
MANTEO         CLEAR     54  49  83 NW3       29.95R

$$

NCZ045>047-081-094-103-104-251000-
CENTRAL COAST

CITY           SKY/WX    TMP DP  RH WIND       PRES   REMARKS
FRISCO         CLEAR     52  51  97 N3        29.95R
SWANQUARTER      N/A     48 N/A N/A NW3       29.91S

$$

NCZ095-097-098-100-101-251000-
SOUTHERN COAST

CITY           SKY/WX    TMP DP  RH WIND       PRES   REMARKS
BEAUFORT       CLEAR     52  50  93 CALM      29.96S
CEDAR ISLAND     N/A     57 N/A N/A W5        29.97S
JACKSONVILLE   CLEAR     46  45  96 CALM      29.96S
PINEY ISLAND   SUNNY     60  50  69 NW7       29.95S
WILMINGTON     CLEAR     46  45  96 CALM      29.96S


$$

NCZ011>013-027>030-043-044-078>080-089-090>093-098-251000-
COASTAL PLAIN

CITY           SKY/WX    TMP DP  RH WIND       PRES   REMARKS
AHOSKIE        CLEAR     41  40  95 CALM      29.97S
CLINTON        CLEAR     45  45 100 CALM      29.97S
ELIZABETHTOWN  CLEAR     45  43  92 CALM      29.97S
GOLDSBORO      CLEAR     47  46  98 CALM      29.94F
GREENVILLE     MIX PCPN  43  43 100 CALM      29.98R
HAVELOCK       CLEAR     47  45  93 CALM      29.97S
KENANSVILLE    CLEAR     41  41 100 CALM      29.97S FOG
KINSTON        CLEAR     43  42  97 CALM      29.96F
NEW BERN       CLEAR     48  45  89 S3        29.97S
RICHLANDS      CLEAR     41  37  87 CALM      29.96F
ROCKY MOUNT    CLEAR     42  41  96 SW3       29.96S
WASHINGTON     CLEAR     45  44  97 CALM      29.96R
WHITEVILLE     CLEAR     47  46  96 CALM      29.96F FOG

$$

AMZ130-135-150-152-154-156-158-170-250-252-270-ANZ085-086-088-633-658-670-251000-
MARINE OBSERVATIONS

STATION/POSITION TIME  TEMP    WIND        PRES    WAVE   SWELL
                       AIR SEA DIR/SP/G            HT/PER HT/PER
                 (UTC) (F)     (DEG/KT/KT) (MB)    (FT/S) (FT/S)
CHESAPEAKE LIGHT 0800   61     340/ 17/ 19 1014.2
64 E VA BEACH    0900   63 66  330/ 12/ 16 1012.6    3/ 5   2/ 9
DUCK             0900   58 65  330/  6/  7 1012.8
2 E DUCK         0900                        N/A     3/ 9
10 NE DUCK       0900      67                N/A     3/10
OREGON INLET     0900   56 64  290/  4/  4 1013.7
13E OREGON INLT  0900      69                N/A     4/ 9   2/11
HATTERAS CG      0900   62 65  320/  5/  7 1014.2
DIAMOND BUOY     0900   65     330/ 10/ 12 1014.0    3/ 9   2/ 9
17 S OCRACOKE    0800          VRB  8/ 10  1013.9
CAPE LOOKOUT     0800   61     320/  8/  9 1014.1
BEAUFORT LAB     0900   56 66  340/  4/  5 1013.5
30 SE NEW RIVER  0900   67 74  340/  8/ 12 1013.9    3/ 9   2/ 9
5 SE WRIGHTSVLE  0900   61 71  300/  8/  8   N/A
225 S CAPE HAT   0829   71 77   20/  6/ 10 1013.7    4/ 9   3/ 9
41 SE CHARLESTON 0900   69 78  340/  6/ 10 1014.5    3/10   2/10

$$



USA.gov is the U.S. government's official web portal to all federal, state and local government web resources and services.